Terminal Aerodrome Forecast
Issued by NWS

Home | Current Version | Previous Version | Text Only | Print | Product List | Glossary Off
Versions: 1 2 3 4 5 6 7 8 9 10 11 12 13 14 15 16 17 18 19

000
FTUS43 KTOP 111100
TAFMHK
TAF
KMHK 111138Z 1112/1212 15007KT P6SM SCT080
     FM111500 20012G21KT P6SM SCT100
     FM120300 19006KT P6SM FEW250=

USA.gov is the U.S. government's official web portal to all federal, state and local government web resources and services.